EZY2LP LEMH-LEST

Flight info

Callsign EZY2LP
Flight time 1h 51m
Altitude 36000
Route EPAMA N733 DESAT/N0447F360 DCT FORNO
Aircraft A21N/M-SDE2E3FGHIRWXY/LB1

Departure

Time 2026-05-05 14:44
Airport Menorca Airport (LEMH)

Arrival

Time 2026-05-05 16:36
Airport Santiago-Rosalía de Castro Airport (LEST)
Time Latitude Longitude Altitude Speed Heading
2026-05-05 14:31 39.86425 4.22396 306 ft 0 kts 99°
2026-05-05 14:35 39.86427 4.22378 308 ft 4 kts 99°
2026-05-05 14:36 39.86429 4.22344 304 ft 4 kts 80°
2026-05-05 14:36 39.86419 4.22315 306 ft 4 kts 38°
2026-05-05 14:36 39.86401 4.22303 305 ft 1 kts
2026-05-05 14:36 39.86398 4.22303 305 ft 0 kts
2026-05-05 14:39 39.86399 4.22303 306 ft 1 kts
2026-05-05 14:39 39.86433 4.22310 308 ft 9 kts
2026-05-05 14:40 39.86514 4.22313 307 ft 12 kts 333°
2026-05-05 14:40 39.86545 4.22217 308 ft 12 kts 300°
2026-05-05 14:40 39.86603 4.22185 309 ft 10 kts 346°
2026-05-05 14:40 39.86662 4.22186 308 ft 8 kts
2026-05-05 14:41 39.86749 4.22203 309 ft 18 kts 11°
2026-05-05 14:41 39.86901 4.22235 311 ft 26 kts
2026-05-05 14:41 39.87079 4.22269 313 ft 25 kts
2026-05-05 14:41 39.87246 4.22301 315 ft 24 kts
2026-05-05 14:42 39.87379 4.22273 316 ft 19 kts 291°
2026-05-05 14:42 39.87370 4.22118 317 ft 13 kts 251°
2026-05-05 14:42 39.87346 4.22091 317 ft 2 kts 189°
2026-05-05 14:42 39.87328 4.22087 317 ft 3 kts 189°
2026-05-05 14:43 39.87307 4.22083 317 ft 3 kts 189°
2026-05-05 14:43 39.87280 4.22078 316 ft 9 kts 189°
2026-05-05 14:43 39.87062 4.22033 315 ft 60 kts 189°
2026-05-05 14:43 39.86441 4.21901 303 ft 121 kts 190°
2026-05-05 14:44 39.85429 4.21701 360 ft 163 kts 189°
2026-05-05 14:44 39.84303 4.21446 877 ft 168 kts 192°
2026-05-05 14:44 39.83177 4.21237 1686 ft 157 kts 191°
2026-05-05 14:44 39.82086 4.21053 2274 ft 166 kts 191°
2026-05-05 14:45 39.80863 4.20838 2546 ft 189 kts 190°
2026-05-05 14:45 39.79479 4.20596 2808 ft 211 kts 191°
2026-05-05 14:45 39.77944 4.20316 3061 ft 234 kts 192°
2026-05-05 14:45 39.76369 4.19604 3502 ft 245 kts 214°
2026-05-05 14:46 39.75167 4.18039 4191 ft 249 kts 241°
2026-05-05 14:46 39.74641 4.15894 4953 ft 253 kts 259°
2026-05-05 14:46 39.74391 4.13598 5684 ft 258 kts 262°
2026-05-05 14:46 39.74182 4.11285 6542 ft 259 kts 262°
2026-05-05 14:47 39.73963 4.08938 7293 ft 264 kts 262°
2026-05-05 14:47 39.73699 4.06573 8124 ft 264 kts 256°
2026-05-05 14:47 39.73052 4.04370 9001 ft 261 kts 238°
2026-05-05 14:47 39.71990 4.02462 9863 ft 261 kts 231°
2026-05-05 14:48 39.70806 4.00623 10388 ft 273 kts 230°
2026-05-05 14:48 39.70308 3.99868 10495 ft 281 kts 230°
2026-05-05 14:48 39.68992 3.97872 10764 ft 301 kts 230°
2026-05-05 14:48 39.67591 3.95736 11082 ft 319 kts 230°
2026-05-05 14:49 39.66153 3.93537 11621 ft 327 kts 230°
2026-05-05 14:49 39.64655 3.91242 12346 ft 330 kts 230°
2026-05-05 14:49 39.63185 3.88988 13062 ft 333 kts 230°
2026-05-05 14:49 39.61686 3.86689 13766 ft 336 kts 230°
2026-05-05 14:50 39.60167 3.84360 14371 ft 339 kts 230°
2026-05-05 14:50 39.58637 3.82017 15006 ft 342 kts 230°
2026-05-05 14:50 39.57098 3.79659 15641 ft 344 kts 231°
2026-05-05 14:50 39.55548 3.77287 16329 ft 345 kts 231°
2026-05-05 14:51 39.53994 3.74911 16943 ft 347 kts 231°
2026-05-05 14:51 39.52427 3.72516 17556 ft 350 kts 231°
2026-05-05 14:51 39.50844 3.70099 18131 ft 353 kts 231°
2026-05-05 14:51 39.49249 3.67665 18645 ft 355 kts 231°
2026-05-05 14:52 39.47647 3.65223 19189 ft 357 kts 231°
2026-05-05 14:52 39.46039 3.62773 19724 ft 357 kts 231°
2026-05-05 14:52 39.44425 3.60317 20261 ft 358 kts 231°
2026-05-05 14:52 39.42811 3.57862 20779 ft 360 kts 231°
2026-05-05 14:53 39.41183 3.55388 21280 ft 361 kts 231°
2026-05-05 14:53 39.39548 3.52905 21759 ft 363 kts 231°
2026-05-05 14:53 39.37919 3.50407 22251 ft 364 kts 232°
2026-05-05 14:53 39.36457 3.47742 22728 ft 365 kts 239°
2026-05-05 14:54 39.35327 3.44801 23184 ft 367 kts 248°
2026-05-05 14:54 39.34603 3.41668 23605 ft 371 kts 256°
2026-05-05 14:54 39.34300 3.38343 23963 ft 377 kts 265°
2026-05-05 14:54 39.34456 3.34924 24293 ft 384 kts 273°
2026-05-05 14:55 39.34929 3.31507 24630 ft 388 kts 276°
2026-05-05 14:55 39.35475 3.28076 24958 ft 391 kts 276°
2026-05-05 14:55 39.35842 3.25795 25177 ft 393 kts 276°
2026-05-05 14:55 39.36394 3.22329 25501 ft 395 kts 276°
2026-05-05 14:56 39.36943 3.18841 25833 ft 397 kts 276°
2026-05-05 14:56 39.37490 3.15332 26147 ft 399 kts 276°
2026-05-05 14:56 39.38036 3.11811 26464 ft 401 kts 276°
2026-05-05 14:56 39.38583 3.08263 26747 ft 403 kts 276°
2026-05-05 14:57 39.39130 3.04709 27053 ft 405 kts 275°
2026-05-05 14:57 39.39678 3.01141 27448 ft 404 kts 275°
2026-05-05 14:57 39.40222 2.97583 27729 ft 405 kts 275°
2026-05-05 14:57 39.40769 2.93993 27965 ft 407 kts 275°
2026-05-05 14:58 39.41318 2.90388 28226 ft 409 kts 275°
2026-05-05 14:58 39.41866 2.86784 28596 ft 408 kts 275°
2026-05-05 14:58 39.42413 2.83182 28980 ft 407 kts 275°
2026-05-05 14:58 39.42956 2.79594 29360 ft 406 kts 275°
2026-05-05 14:59 39.43605 2.76033 29723 ft 409 kts 280°
2026-05-05 14:59 39.44560 2.72546 30048 ft 413 kts 284°
2026-05-05 14:59 39.45637 2.69092 30322 ft 413 kts 285°
2026-05-05 14:59 39.46732 2.65652 30624 ft 412 kts 285°
2026-05-05 15:00 39.47807 2.62277 30974 ft 410 kts 285°
2026-05-05 15:00 39.48538 2.59972 31180 ft 409 kts 285°
2026-05-05 15:00 39.49964 2.55460 31519 ft 408 kts 284°
2026-05-05 15:00 39.51037 2.52055 31761 ft 407 kts 284°
2026-05-05 15:01 39.52105 2.48660 31991 ft 407 kts 284°
2026-05-05 15:01 39.53171 2.45266 32256 ft 406 kts 284°
2026-05-05 15:01 39.54219 2.41871 32504 ft 404 kts 282°
2026-05-05 15:01 39.54935 2.38406 32704 ft 394 kts 272°
2026-05-05 15:02 39.55240 2.34900 32921 ft 390 kts 269°
2026-05-05 15:02 39.55443 2.31399 33138 ft 389 kts 268°
2026-05-05 15:02 39.55631 2.27906 33389 ft 387 kts 268°
2026-05-05 15:02 39.55818 2.24453 33822 ft 382 kts 268°
2026-05-05 15:03 39.56190 2.17618 33907 ft 378 kts 268°
2026-05-05 15:03 39.56561 2.10830 33897 ft 377 kts 268°
2026-05-05 15:04 39.56929 2.04041 33894 ft 377 kts 268°
2026-05-05 15:04 39.57294 1.97262 33893 ft 377 kts 268°
2026-05-05 15:05 39.57835 1.87086 33896 ft 375 kts 267°
2026-05-05 15:06 39.58186 1.80401 33893 ft 373 kts 267°
2026-05-05 15:06 39.58534 1.73688 33893 ft 373 kts 267°
2026-05-05 15:07 39.58878 1.66976 33891 ft 373 kts 267°
2026-05-05 15:07 39.59218 1.60258 33887 ft 373 kts 267°
2026-05-05 15:08 39.59555 1.53544 33891 ft 373 kts 267°
2026-05-05 15:08 39.59887 1.46840 33888 ft 372 kts 267°
2026-05-05 15:09 39.60210 1.40162 33891 ft 371 kts 266°
2026-05-05 15:09 39.60136 1.33556 33885 ft 367 kts 261°
2026-05-05 15:10 39.59770 1.26964 33886 ft 366 kts 260°
2026-05-05 15:10 39.59355 1.20387 33890 ft 366 kts 260°
2026-05-05 15:11 39.58959 1.13800 33902 ft 366 kts 261°
2026-05-05 15:11 39.58577 1.07209 33886 ft 367 kts 261°
2026-05-05 15:12 39.58196 1.00614 33889 ft 367 kts 261°
2026-05-05 15:12 39.57815 0.94069 33889 ft 367 kts 261°
2026-05-05 15:13 39.57426 0.87473 33884 ft 367 kts 261°
2026-05-05 15:13 39.57032 0.80879 33889 ft 367 kts 261°
2026-05-05 15:14 39.56635 0.74286 33895 ft 367 kts 261°
2026-05-05 15:14 39.56234 0.67686 33885 ft 368 kts 261°
2026-05-05 15:15 39.55831 0.61117 33888 ft 368 kts 261°
2026-05-05 15:15 39.55422 0.54509 33886 ft 368 kts 261°
2026-05-05 15:16 39.55011 0.47909 33886 ft 368 kts 261°
2026-05-05 15:16 39.54595 0.41302 33886 ft 368 kts 261°
2026-05-05 15:17 39.54174 0.34693 33888 ft 369 kts 261°
2026-05-05 15:17 39.53748 0.28056 33889 ft 369 kts 261°
2026-05-05 15:18 39.53322 0.21471 33889 ft 369 kts 261°
2026-05-05 15:18 39.52887 0.14826 33892 ft 369 kts 261°
2026-05-05 15:19 39.52449 0.08190 33889 ft 369 kts 261°
2026-05-05 15:19 39.52008 0.01560 33889 ft 369 kts 261°
2026-05-05 15:20 39.51562 -0.05068 33893 ft 368 kts 261°
2026-05-05 15:20 39.51116 -0.11667 33891 ft 368 kts 261°
2026-05-05 15:21 39.50668 -0.18222 33889 ft 367 kts 261°
2026-05-05 15:21 39.50214 -0.24820 33886 ft 367 kts 261°
2026-05-05 15:22 39.49756 -0.31410 33884 ft 367 kts 261°
2026-05-05 15:22 39.49295 -0.37998 33884 ft 367 kts 261°
2026-05-05 15:23 39.49068 -0.44625 33885 ft 372 kts 269°
2026-05-05 15:23 39.50136 -0.51247 33883 ft 384 kts 284°
2026-05-05 15:24 39.52543 -0.57525 33886 ft 392 kts 290°
2026-05-05 15:24 39.55278 -0.63663 33883 ft 394 kts 291°
2026-05-05 15:25 39.58029 -0.69755 33923 ft 394 kts 291°
2026-05-05 15:25 39.60769 -0.75915 33881 ft 395 kts 291°
2026-05-05 15:26 39.63481 -0.82062 33884 ft 388 kts 292°
2026-05-05 15:26 39.66138 -0.88120 33889 ft 386 kts 291°
2026-05-05 15:27 39.68788 -0.94188 33925 ft 386 kts 292°
2026-05-05 15:27 39.71432 -1.00254 33934 ft 386 kts 291°
2026-05-05 15:28 39.74068 -1.06316 33936 ft 385 kts 291°
2026-05-05 15:28 39.76690 -1.12343 33935 ft 385 kts 291°
2026-05-05 15:29 39.79335 -1.18403 33937 ft 383 kts 292°
2026-05-05 15:29 39.81967 -1.24445 33939 ft 385 kts 292°
2026-05-05 15:30 39.84593 -1.30527 33937 ft 387 kts 292°
2026-05-05 15:30 39.87215 -1.36593 33923 ft 386 kts 292°
2026-05-05 15:31 39.89851 -1.42695 33936 ft 386 kts 292°
2026-05-05 15:31 39.92479 -1.48796 33927 ft 386 kts 292°
2026-05-05 15:32 39.95105 -1.54907 33950 ft 386 kts 292°
2026-05-05 15:32 39.97721 -1.61004 33945 ft 385 kts 292°
2026-05-05 15:33 40.00334 -1.67106 33944 ft 385 kts 292°
2026-05-05 15:33 40.02944 -1.73215 33968 ft 386 kts 292°
2026-05-05 15:34 40.05563 -1.79361 33963 ft 388 kts 293°
2026-05-05 15:34 40.08184 -1.85522 33965 ft 388 kts 292°
2026-05-05 15:35 40.10800 -1.91686 33984 ft 388 kts 293°
2026-05-05 15:35 40.13388 -1.97786 33973 ft 384 kts 293°
2026-05-05 15:36 40.15977 -2.03892 33973 ft 384 kts 294°
2026-05-05 15:36 40.18570 -2.09985 33973 ft 384 kts 294°
2026-05-05 15:37 40.21167 -2.16085 33969 ft 383 kts 293°
2026-05-05 15:37 40.23742 -2.22198 34006 ft 384 kts 293°
2026-05-05 15:38 40.26338 -2.28405 33975 ft 391 kts 293°
2026-05-05 15:38 40.28950 -2.34647 33956 ft 389 kts 294°
2026-05-05 15:39 40.31528 -2.40817 33974 ft 388 kts 294°
2026-05-05 15:39 40.34116 -2.47027 33971 ft 388 kts 294°
2026-05-05 15:40 40.36696 -2.53235 33964 ft 388 kts 294°
2026-05-05 15:40 40.39212 -2.59484 33962 ft 387 kts 292°
2026-05-05 15:41 40.41671 -2.65766 33956 ft 387 kts 292°
2026-05-05 15:41 40.44120 -2.72044 33953 ft 386 kts 293°
2026-05-05 15:42 40.46580 -2.78343 33949 ft 390 kts 293°
2026-05-05 15:42 40.48642 -2.83622 33947 ft 391 kts 293°
2026-05-05 15:43 40.51528 -2.91021 33937 ft 391 kts 293°
2026-05-05 15:43 40.54003 -2.97381 33937 ft 391 kts 293°
2026-05-05 15:44 40.56059 -3.02677 33936 ft 391 kts 293°
2026-05-05 15:44 40.58527 -3.09046 33936 ft 390 kts 293°
2026-05-05 15:45 40.60988 -3.15409 33936 ft 390 kts 293°
2026-05-05 15:45 40.63449 -3.21792 33937 ft 390 kts 293°
2026-05-05 15:46 40.65902 -3.28165 33936 ft 390 kts 293°
2026-05-05 15:46 40.68351 -3.34541 33935 ft 390 kts 293°
2026-05-05 15:47 40.70798 -3.40925 33942 ft 390 kts 293°
2026-05-05 15:47 40.73237 -3.47301 33941 ft 388 kts 293°
2026-05-05 15:48 40.75644 -3.53606 33947 ft 386 kts 293°
2026-05-05 15:48 40.78057 -3.59944 33950 ft 386 kts 293°
2026-05-05 15:49 40.80464 -3.66280 33969 ft 386 kts 293°
2026-05-05 15:49 40.82868 -3.72620 33969 ft 386 kts 293°
2026-05-05 15:50 40.85271 -3.78972 33979 ft 387 kts 293°
2026-05-05 15:50 40.87650 -3.85280 33976 ft 390 kts 294°
2026-05-05 15:51 40.90064 -3.91692 33978 ft 390 kts 294°
2026-05-05 15:51 40.92480 -3.98116 33984 ft 389 kts 294°
2026-05-05 15:52 40.94887 -4.04529 33981 ft 389 kts 294°
2026-05-05 15:52 40.97292 -4.10955 33981 ft 389 kts 294°
2026-05-05 15:53 40.99689 -4.17375 33993 ft 389 kts 294°
2026-05-05 15:53 41.02084 -4.23803 33996 ft 389 kts 294°
2026-05-05 15:54 41.04477 -4.30233 33993 ft 389 kts 294°
2026-05-05 15:54 41.06859 -4.36646 33998 ft 393 kts 294°
2026-05-05 15:55 41.09286 -4.43199 33983 ft 396 kts 294°
2026-05-05 15:55 41.11713 -4.49761 33987 ft 396 kts 294°
2026-05-05 15:56 41.14139 -4.56336 33988 ft 396 kts 294°
2026-05-05 15:56 41.16553 -4.62897 33985 ft 394 kts 294°
2026-05-05 15:57 41.18934 -4.69386 33985 ft 393 kts 294°
2026-05-05 15:57 41.21324 -4.75915 33982 ft 393 kts 294°
2026-05-05 15:58 41.23697 -4.82413 33983 ft 392 kts 294°
2026-05-05 15:58 41.26084 -4.88964 33989 ft 395 kts 294°
2026-05-05 15:59 41.28490 -4.95585 33968 ft 398 kts 294°
2026-05-05 15:59 41.30882 -5.02175 33977 ft 392 kts 294°
2026-05-05 16:00 41.33228 -5.08658 33973 ft 391 kts 294°
2026-05-05 16:00 41.35585 -5.15189 33979 ft 390 kts 294°
2026-05-05 16:01 41.37934 -5.21711 33980 ft 390 kts 294°
2026-05-05 16:01 41.40284 -5.28248 33967 ft 391 kts 294°
2026-05-05 16:02 41.42614 -5.34748 33966 ft 390 kts 294°
2026-05-05 16:02 41.44940 -5.41246 33985 ft 388 kts 294°
2026-05-05 16:03 41.47254 -5.47730 33974 ft 390 kts 294°
2026-05-05 16:03 41.49587 -5.54283 33976 ft 391 kts 294°
2026-05-05 16:04 41.51917 -5.60840 33981 ft 391 kts 294°
2026-05-05 16:04 41.54691 -5.67090 33972 ft 392 kts 301°
2026-05-05 16:05 41.57777 -5.73105 33958 ft 391 kts 303°
2026-05-05 16:05 41.60886 -5.79016 33973 ft 388 kts 303°
2026-05-05 16:06 41.63968 -5.84887 33994 ft 389 kts 303°
2026-05-05 16:06 41.67094 -5.90876 33964 ft 395 kts 303°
2026-05-05 16:07 41.70236 -5.96920 33962 ft 395 kts 303°
2026-05-05 16:07 41.73376 -6.02972 33980 ft 395 kts 303°
2026-05-05 16:08 41.76488 -6.08981 33942 ft 395 kts 303°
2026-05-05 16:08 41.79594 -6.14991 33966 ft 389 kts 303°
2026-05-05 16:09 41.82671 -6.20956 33993 ft 389 kts 303°
2026-05-05 16:09 41.85775 -6.26991 33963 ft 397 kts 303°
2026-05-05 16:10 41.88918 -6.33111 33962 ft 399 kts 303°
2026-05-05 16:10 41.92057 -6.39236 33962 ft 398 kts 303°
2026-05-05 16:10 41.93626 -6.42303 33834 ft 393 kts 303°
2026-05-05 16:11 41.95150 -6.45282 33476 ft 385 kts 303°
2026-05-05 16:11 41.99649 -6.54102 31582 ft 378 kts 304°
2026-05-05 16:12 42.01122 -6.56996 31223 ft 370 kts 304°
2026-05-05 16:12 42.03986 -6.62632 30359 ft 360 kts 304°
2026-05-05 16:13 42.08122 -6.70785 29079 ft 341 kts 304°
2026-05-05 16:13 42.09448 -6.73404 28676 ft 335 kts 304°
2026-05-05 16:13 42.10748 -6.75973 28276 ft 329 kts 304°
2026-05-05 16:14 42.13296 -6.81014 27508 ft 328 kts 304°
2026-05-05 16:14 42.15861 -6.86099 26703 ft 326 kts 305°
2026-05-05 16:15 42.18378 -6.91098 25938 ft 320 kts 305°
2026-05-05 16:15 42.20884 -6.96080 25159 ft 322 kts 305°
2026-05-05 16:16 42.23383 -7.01059 24369 ft 323 kts 304°
2026-05-05 16:16 42.25898 -7.06077 23542 ft 322 kts 304°
2026-05-05 16:17 42.28395 -7.11067 22659 ft 319 kts 304°
2026-05-05 16:17 42.29639 -7.13556 22267 ft 318 kts 304°
2026-05-05 16:18 42.32093 -7.18476 21468 ft 316 kts 304°
2026-05-05 16:18 42.33319 -7.20937 21055 ft 315 kts 304°
2026-05-05 16:18 42.35751 -7.25822 20262 ft 309 kts 305°
2026-05-05 16:19 42.36950 -7.28233 19742 ft 310 kts 305°
2026-05-05 16:19 42.38159 -7.30665 19377 ft 310 kts 304°
2026-05-05 16:19 42.40574 -7.35529 18787 ft 321 kts 304°
2026-05-05 16:20 42.43028 -7.40483 18109 ft 314 kts 304°
2026-05-05 16:20 42.45437 -7.45355 17266 ft 308 kts 304°
2026-05-05 16:21 42.47291 -7.50519 16466 ft 304 kts 289°
2026-05-05 16:22 42.48944 -7.58808 15251 ft 302 kts 287°
2026-05-05 16:22 42.50011 -7.64252 14451 ft 299 kts 287°
2026-05-05 16:23 42.51079 -7.69682 13650 ft 297 kts 287°
2026-05-05 16:23 42.51611 -7.72389 13224 ft 296 kts 287°
2026-05-05 16:23 42.52666 -7.77758 12434 ft 293 kts 287°
2026-05-05 16:24 42.53188 -7.80420 12041 ft 291 kts 287°
2026-05-05 16:24 42.53705 -7.83064 11654 ft 290 kts 287°
2026-05-05 16:24 42.54732 -7.88320 10894 ft 286 kts 287°
2026-05-05 16:25 42.55229 -7.90870 10682 ft 276 kts 287°
2026-05-05 16:25 42.56166 -7.95697 10477 ft 256 kts 287°
2026-05-05 16:25 42.56622 -7.98038 10099 ft 256 kts 287°
2026-05-05 16:26 42.57555 -8.02680 9397 ft 254 kts 287°
2026-05-05 16:26 42.58443 -8.07284 8746 ft 250 kts 286°
2026-05-05 16:27 42.58870 -8.09552 8384 ft 254 kts 286°
2026-05-05 16:27 42.59319 -8.11910 7631 ft 261 kts 286°
2026-05-05 16:27 42.59774 -8.14291 7101 ft 260 kts 286°
2026-05-05 16:27 42.60225 -8.16651 6827 ft 254 kts 286°
2026-05-05 16:28 42.60658 -8.18919 6752 ft 242 kts 286°
2026-05-05 16:28 42.61066 -8.21063 6725 ft 225 kts 287°
2026-05-05 16:28 42.61448 -8.23062 6539 ft 213 kts 287°
2026-05-05 16:28 42.61811 -8.24955 6308 ft 203 kts 287°
2026-05-05 16:29 42.62154 -8.26741 6063 ft 192 kts 286°
2026-05-05 16:29 42.62483 -8.28455 5827 ft 184 kts 287°
2026-05-05 16:29 42.62819 -8.30112 5607 ft 181 kts 290°
2026-05-05 16:29 42.63347 -8.31640 5362 ft 178 kts 308°
2026-05-05 16:30 42.64290 -8.32700 5138 ft 177 kts 329°
2026-05-05 16:30 42.65425 -8.33370 4924 ft 179 kts 339°
2026-05-05 16:30 42.66632 -8.33828 4688 ft 181 kts 343°
2026-05-05 16:30 42.67856 -8.34234 4453 ft 181 kts 343°
2026-05-05 16:31 42.69068 -8.34633 4221 ft 177 kts 343°
2026-05-05 16:31 42.69858 -8.34894 4087 ft 175 kts 342°
2026-05-05 16:31 42.71040 -8.35287 3963 ft 174 kts 342°
2026-05-05 16:31 42.72613 -8.35816 3808 ft 176 kts 344°
2026-05-05 16:32 42.73421 -8.36088 3712 ft 177 kts 344°
2026-05-05 16:32 42.74623 -8.36491 3589 ft 178 kts 344°
2026-05-05 16:32 42.75824 -8.36893 3460 ft 178 kts 344°
2026-05-05 16:32 42.77013 -8.37290 3333 ft 177 kts 344°
2026-05-05 16:33 42.78205 -8.37687 3212 ft 176 kts 343°
2026-05-05 16:33 42.79395 -8.38085 3085 ft 177 kts 343°
2026-05-05 16:33 42.80598 -8.38490 2905 ft 180 kts 343°
2026-05-05 16:33 42.81778 -8.38882 2627 ft 167 kts 343°
2026-05-05 16:34 42.82834 -8.39235 2451 ft 149 kts 342°
2026-05-05 16:34 42.83812 -8.39563 2239 ft 142 kts 342°
2026-05-05 16:34 42.84772 -8.39885 2044 ft 142 kts 341°
2026-05-05 16:34 42.85733 -8.40208 1851 ft 144 kts 343°
2026-05-05 16:35 42.86710 -8.40536 1653 ft 145 kts 344°
2026-05-05 16:35 42.87677 -8.40860 1436 ft 141 kts 344°
2026-05-05 16:35 42.88653 -8.41183 1284 ft 143 kts 344°
2026-05-05 16:35 42.89563 -8.41491 1214 ft 124 kts 345°
2026-05-05 16:36 42.90242 -8.41722 1209 ft 74 kts 346°
2026-05-05 16:36 42.90590 -8.41838 1206 ft 41 kts 346°
2026-05-05 16:36 42.90845 -8.41924 1201 ft 31 kts 346°
2026-05-05 16:36 42.91049 -8.41991 1197 ft 29 kts 346°
2026-05-05 16:37 42.91148 -8.42078 1196 ft 15 kts 279°
2026-05-05 16:37 42.91129 -8.42176 1198 ft 11 kts 247°
2026-05-05 16:37 42.91100 -8.42222 1198 ft 2 kts 192°
2026-05-05 16:37 42.91089 -8.42221 1198 ft 1 kts 174°
2026-05-05 16:38 42.91066 -8.42217 1198 ft 12 kts 171°
2026-05-05 16:38 42.90928 -8.42173 1200 ft 24 kts 166°
2026-05-05 16:38 42.90773 -8.42128 1201 ft 22 kts 166°
2026-05-05 16:38 42.90606 -8.42069 1203 ft 31 kts 165°
2026-05-05 16:39 42.90387 -8.41996 1206 ft 32 kts 166°
2026-05-05 16:39 42.90177 -8.41925 1208 ft 30 kts 166°
2026-05-05 16:39 42.90024 -8.41878 1209 ft 6 kts 184°
2026-05-05 16:39 42.89987 -8.41936 1209 ft 7 kts 244°
2026-05-05 16:40 42.89971 -8.41946 1209 ft 2 kts 170°
2026-05-05 16:40 42.89935 -8.41914 1211 ft 14 kts 150°
2026-05-05 16:40 42.89834 -8.41859 1211 ft 15 kts 162°
2026-05-05 16:40 42.89799 -8.41859 1211 ft 2 kts 243°
2026-05-05 16:41 42.89791 -8.41921 1211 ft 6 kts 263°
2026-05-05 16:41 42.89791 -8.41924 1211 ft 0 kts 263°